Temperature
26 27 28 29 29 30 29 29 29 30 30 30 30 30 31 29 29 28 27 25 24 23 21 20 19 18 18 18 18 18 18 18 17 17 17 17 17 17 17 17 17 17 17 17
26 27 29 29 28 28 28 28 29 29 29 29 30 30 31 29 28 27 26 25 24 23 21 19 19 18 18 18 18 18 18 18 17 17 17 17 17 17 17 17 17 17 17 17
27 28 29 27 27 27 28 28 29 29 29 30 29 30 30 29 28 27 26 25 25 23 21 20 19 18 18 18 18 18 18 17 17 17 17 16 16 16 16 17 17 17 17 17
28 28 27 27 27 28 28 29 28 28 29 30 29 29 30 30 29 28 27 26 25 24 22 20 19 18 18 18 18 18 17 17 17 17 16 16 16 17 17 17 17 17 17 17
27 28 27 27 28 28 28 29 28 28 29 29 29 29 30 30 29 29 28 26 25 24 23 21 20 19 18 18 18 17 17 17 17 17 17 17 17 17 17 17 17 17 17 17
28 28 28 28 29 28 28 28 28 28 29 28 29 29 29 30 29 29 28 26 25 24 22 21 19 18 18 18 18 17 17 17 17 17 17 17 17 17 17 17 17 17 17 17
27 27 28 28 28 28 28 28 27 27 28 28 29 28 29 30 29 28 28 26 24 23 22 20 19 18 18 18 17 17 17 17 17 17 17 17 17 16 17 17 17 17 17 17
26 27 28 28 28 28 28 28 28 28 28 29 28 28 30 29 28 27 26 25 24 23 22 21 19 19 18 18 17 17 17 17 17 17 17 16 16 16 16 17 17 17 17 17
28 28 29 29 29 29 28 28 30 29 29 28 29 29 29 28 28 27 26 25 24 23 22 21 20 19 18 18 17 17 17 17 17 17 17 17 16 16 16 17 17 17 17 17
28 27 28 28 28 28 29 29 29 28 27 27 28 28 29 29 28 27 27 26 24 23 22 21 20 19 18 18 17 17 17 17 17 17 17 16 16 16 17 16 17 16 16 16
29 27 27 28 27 28 27 28 28 29 29 28 28 29 30 29 28 28 27 25 24 23 22 21 20 19 18 18 17 17 17 17 17 17 17 16 16 16 16 16 16 17 17 16
28 28 28 28 29 29 29 29 28 27 27 28 28 29 29 28 28 27 26 25 24 23 21 20 19 18 18 18 17 17 17 17 17 17 17 17 16 16 16 16 17 17 17 17
27 27 26 26 27 27 28 29 29 29 29 28 28 28 27 27 27 26 25 24 23 22 21 20 19 18 18 18 17 17 17 17 17 17 17 16 16 16 16 16 16 16 16 16
27 27 27 27 28 28 27 28 28 29 28 28 28 29 28 27 27 26 24 23 22 21 20 20 19 18 18 17 17 17 17 17 17 16 16 16 16 16 16 16 16 16 16 16
26 26 27 28 29 29 28 28 28 28 29 29 29 29 28 27 26 25 24 23 22 21 20 19 19 18 18 17 17 17 17 16 16 16 16 16 16 16 16 16 16 16 16 16
25 26 27 27 28 28 28 28 28 28 28 29 29 28 26 25 24 23 23 22 21 20 20 19 18 18 17 17 17 17 17 16 16 16 16 16 16 16 16 16 16 16 16 16
25 25 25 26 27 27 27 27 28 28 28 28 28 27 25 24 23 22 21 21 20 20 19 18 18 17 17 17 17 17 17 16 16 16 16 16 16 16 16 16 16 16 16 16
23 24 26 26 26 25 27 27 28 27 27 27 27 26 25 23 21 20 19 19 19 19 18 17 17 17 17 17 17 17 17 16 16 16 16 16 16 16 16 16 15 15 15 15
23 23 25 26 25 26 25 25 26 26 26 26 26 24 22 21 20 19 18 18 18 17 17 16 17 17 17 17 16 16 16 16 16 16 16 16 16 16 16 16 15 15 15 15
22 23 25 25 25 25 26 25 25 26 25 25 24 23 22 22 24 21 17 17 17 16 16 16 16 16 16 16 16 16 16 16 16 16 16 16 16 16 15 15 15 15 15 14
23 23 24 24 24 25 24 24 24 24 25 23 22 22 21 22 21 18 16 16 15 15 16 16 16 16 16 16 15 16 16 15 15 15 15 15 15 15 15 15 14 14 14 14
23 23 23 24 24 24 22 23 24 22 21 21 21 20 20 18 17 16 16 15 15 15 15 15 15 15 15 15 15 15 15 15 15 15 15 15 15 14 14 14 14 14 13 13
22 22 24 23 23 20 20 20 19 19 19 19 19 19 18 17 16 15 15 14 14 14 14 14 14 14 14 14 14 14 14 14 14 14 14 14 14 14 13 13 13 13 13 13
20 19 21 20 20 19 18 18 17 18 18 18 18 17 17 16 15 15 14 14 13 13 14 14 14 14 13 13 14 14 14 14 14 14 13 13 13 13 12 12 12 12 12 12
20 20 20 20 19 18 17 17 16 16 16 16 16 16 16 15 14 14 13 13 13 13 13 13 13 13 12 13 13 13 13 13 13 13 12 12 12 12 12 11 11 11 11 11
20 20 20 20 18 19 17 15 15 15 15 15 15 15 15 14 13 13 12 12 12 12 12 12 12 12 12 12 12 12 12 12 12 12 12 11 11 11 11 11 10 10 10 10
Wind_Speed
11 12 13 13 13 8 4 6 6 4 2 5 6 6 3 2 4 5 6 7 9 9 10 11 12 12 13 13 14 15 15 14 12 11 11 10 9 9 8 8 10 10 10 9
10 16 15 9 8 9 10 9 8 5 2 5 6 7 3 2 3 4 5 7 8 9 11 11 12 12 13 13 14 14 15 15 14 11 10 8 8 8 8 7 8 10 10 10
16 5 10 12 12 12 12 11 8 5 4 5 7 8 5 4 3 4 5 6 8 10 11 12 12 12 12 12 13 12 13 13 14 13 9 8 7 7 8 8 8 9 11 10
15 8 8 14 14 13 12 9 8 7 8 5 4 7 4 4 5 5 6 7 8 9 10 12 12 12 12 11 11 11 12 12 13 13 12 14 11 10 10 9 9 9 11 11
12 13 13 14 14 13 8 4 7 7 8 9 7 8 4 4 5 4 5 6 7 8 9 11 12 12 11 11 11 11 12 12 13 14 13 13 12 10 9 9 10 10 10 10
9 8 12 12 11 12 7 6 5 7 9 10 8 8 5 2 2 2 4 5 6 8 9 9 10 10 10 10 10 11 11 12 12 13 13 13 13 12 11 11 11 11 9 9
13 12 10 9 11 12 13 10 8 9 9 9 4 7 4 1 1 1 3 5 6 8 9 10 10 10 11 11 11 11 11 11 12 13 13 13 13 13 13 12 11 10 9 9
16 15 16 14 15 12 17 16 10 7 8 6 7 7 2 3 2 2 4 6 8 9 9 10 10 10 10 11 10 10 11 11 11 12 12 12 12 11 10 11 10 10 8 8
13 12 12 15 15 14 15 16 15 10 7 7 6 4 4 5 5 5 6 7 8 9 9 9 9 9 10 10 10 10 10 10 11 11 11 11 11 10 10 10 10 9 8 8
9 10 11 12 11 14 13 13 10 11 9 10 8 8 5 6 6 6 7 8 9 9 9 9 8 8 8 8 9 9 10 9 9 10 10 9 10 10 9 9 10 9 9 8
13 10 10 12 14 17 14 14 12 12 10 8 7 5 2 4 4 6 7 8 9 9 9 8 8 8 7 7 8 8 9 9 8 9 9 9 9 9 9 8 9 9 9 9
15 10 11 12 7 8 16 16 16 12 10 10 9 2 6 3 4 5 7 8 9 9 9 9 8 8 7 7 7 8 8 9 9 9 9 9 9 9 9 9 9 9 9 9
14 10 12 11 10 9 12 14 15 15 11 11 11 5 7 5 5 6 7 8 9 9 9 9 8 7 7 6 6 7 7 8 9 9 9 9 8 8 8 9 9 9 9 9
10 11 14 14 12 15 15 14 15 15 12 12 11 6 6 6 6 6 7 8 9 9 9 8 7 7 6 6 6 6 6 7 7 8 9 9 9 8 8 8 8 8 8 8
9 12 13 10 6 10 14 15 16 16 14 12 9 8 5 5 5 5 7 8 9 9 9 8 7 7 6 6 5 5 6 6 7 7 8 8 8 8 7 7 7 7 7 7
6 8 11 11 10 11 12 13 14 14 13 12 8 5 4 5 5 6 7 8 9 8 8 7 7 7 6 6 6 6 6 6 7 7 7 7 7 7 7 7 6 6 6 7
8 8 11 12 12 12 14 13 13 12 10 11 10 5 8 7 6 5 5 7 7 7 7 6 6 5 5 5 5 6 6 6 7 7 7 7 7 7 6 6 6 6 6 6
6 9 9 10 11 15 7 4 8 9 8 6 3 6 7 7 7 6 5 6 6 7 6 5 4 4 4 4 5 5 5 6 6 6 6 6 7 7 7 6 6 6 5 5
8 7 8 10 14 12 5 6 8 9 8 6 7 8 9 9 9 7 5 5 5 5 5 4 4 4 4 4 4 5 5 6 6 6 6 6 7 7 7 7 6 6 6 5
8 8 9 10 13 13 8 8 5 7 9 7 8 9 9 9 6 5 6 6 6 5 5 5 4 5 4 3 4 5 5 6 6 5 5 5 6 6 6 6 6 6 6 6
11 10 13 12 12 7 5 7 7 10 5 8 8 8 7 3 4 8 7 6 6 6 6 5 5 5 4 3 4 4 4 4 4 5 5 5 5 6 6 6 6 6 7 8
10 11 11 11 13 8 6 7 5 2 5 7 7 7 7 8 9 8 7 7 6 6 6 6 5 5 4 4 4 5 4 3 4 5 6 6 6 6 6 8 7 7 8 9
5 3 4 4 3 5 3 3 4 3 4 5 6 7 8 9 9 8 7 7 6 6 6 5 6 6 5 5 5 6 5 5 6 7 7 7 8 8 8 8 8 7 6 7
3 1 2 2 3 4 3 3 3 3 4 4 6 8 9 9 9 8 7 7 6 6 6 6 6 6 6 6 6 6 6 6 8 9 9 9 10 10 9 7 6 6 6 7
3 4 4 4 4 4 3 3 4 5 6 6 7 8 8 10 9 8 7 7 6 6 6 6 7 7 7 7 7 7 7 9 10 11 10 10 11 12 12 12 11 9 9 8
4 4 5 3 5 4 5 4 5 6 7 8 9 9 9 9 10 9 8 7 7 7 7 7 8 8 8 8 8 8 7 9 11 11 11 10 10 11 11 13 15 21 18 21
Wind_Direction
192 212 218 217 224 253 254 248 239 237 300 282 265 274 276 205 207 196 190 184 184 183 177 174 175 177 178 179 182 185 186 182 180 183 185 186 188 189 192 195 192 194 195 190
195 224 227 224 219 230 236 243 241 226 240 279 276 272 249 203 202 201 193 187 183 174 170 171 173 175 179 181 185 186 186 183 184 185 187 189 188 192 192 194 190 197 196 195
212 216 210 206 207 218 229 239 244 254 274 236 267 245 212 177 181 186 193 192 184 178 176 174 175 178 182 186 188 189 187 186 187 184 182 181 182 191 192 195 193 197 199 199
225 202 191 204 213 217 228 230 242 250 258 234 252 266 202 192 198 194 193 191 187 181 178 175 177 180 183 187 186 187 190 187 185 185 188 188 193 196 197 195 191 194 200 202
211 208 203 210 212 212 225 207 227 242 249 261 232 260 235 183 225 201 188 188 187 182 178 176 177 176 178 182 183 184 187 188 186 188 191 195 201 200 196 196 193 197 196 203
214 200 215 221 213 208 198 192 211 234 240 242 237 252 253 206 233 181 170 175 176 173 168 169 168 168 171 175 179 182 184 189 187 188 192 199 202 200 196 196 195 198 195 199
208 207 204 205 193 192 200 206 211 214 221 234 192 242 256 66 55 241 178 167 164 164 164 164 164 167 170 175 179 180 183 187 188 192 196 201 204 202 200 198 198 199 195 195
203 206 201 203 207 193 204 215 227 231 230 213 184 234 201 115 114 138 150 151 154 158 160 164 166 168 173 175 177 178 183 186 188 194 197 200 203 202 200 200 198 196 199 200
206 209 189 203 211 217 206 220 236 249 256 253 216 211 198 158 160 150 146 148 152 156 158 160 164 170 174 175 176 177 178 181 186 190 190 193 198 200 197 195 199 198 198 197
213 206 186 186 198 216 229 217 217 231 234 239 229 226 220 180 173 160 160 158 154 153 155 156 162 166 169 172 173 175 174 178 184 187 187 188 192 193 192 191 195 198 198 198
219 208 180 183 199 194 200 209 215 225 237 244 238 214 148 174 174 171 166 162 159 157 156 155 157 157 159 162 165 172 172 174 178 182 186 185 186 187 188 191 196 197 197 196
210 217 201 191 186 212 204 209 208 216 219 239 260 210 111 141 158 161 160 156 155 154 151 149 150 150 155 161 164 168 173 176 178 180 182 183 185 184 184 189 195 195 195 198
190 206 202 192 191 198 212 216 218 224 227 230 241 215 127 140 150 152 153 152 151 151 150 149 149 152 153 157 161 166 173 175 176 174 179 181 185 185 188 191 194 194 196 200
198 210 219 213 204 192 201 206 215 219 226 227 236 227 163 161 160 154 151 152 152 153 154 154 153 154 153 156 159 166 170 172 175 175 177 182 187 189 190 191 192 193 194 197
204 213 221 236 222 202 205 204 207 219 231 238 229 229 199 164 163 155 152 153 154 153 156 157 156 153 158 159 163 173 173 174 177 179 182 186 186 187 188 188 189 188 190 194
208 218 209 215 211 211 211 210 208 216 227 234 233 213 125 128 139 144 151 154 154 152 153 152 153 156 163 168 172 174 177 176 176 183 187 186 185 185 187 187 183 182 186 189
195 202 208 211 200 205 213 209 207 210 219 227 224 185 143 144 137 134 141 146 145 142 141 145 148 155 162 171 176 178 178 174 177 186 189 185 184 182 182 180 178 183 186 186
207 211 214 210 195 217 202 184 208 205 205 209 172 139 141 127 115 102 110 128 131 132 129 125 129 140 151 160 171 176 175 175 175 180 182 178 181 180 177 177 176 174 172 168
206 209 216 212 214 212 168 175 191 198 199 189 166 144 134 129 125 106 93 104 113 118 115 112 114 123 133 145 158 163 165 166 167 175 178 179 177 175 171 170 165 159 154 149
186 214 222 220 228 222 193 166 186 207 203 172 165 156 154 169 185 127 107 102 100 101 103 103 105 107 111 123 143 152 153 158 165 169 172 171 167 165 163 156 146 141 134 128
189 202 218 220 227 223 118 145 178 211 190 147 157 159 163 157 74 110 110 98 96 97 96 95 96 95 94 99 121 133 137 145 152 150 148 145 143 143 140 135 131 131 126 118
207 205 211 219 226 213 134 170 195 87 95 135 143 141 131 112 110 114 110 103 97 97 96 97 93 84 77 83 100 112 114 116 124 129 130 131 130 130 127 121 119 120 123 118
227 248 221 225 217 83 114 104 70 92 113 126 136 134 134 132 127 121 113 105 97 95 93 94 92 81 69 69 86 95 93 101 110 112 110 110 105 102 107 112 117 118 120 118
185 208 213 189 149 123 115 107 96 106 117 123 133 135 139 135 131 124 112 101 95 92 93 95 94 85 71 66 76 86 94 102 105 104 102 100 99 95 89 90 94 100 109 116
202 194 202 199 169 156 146 121 105 109 113 117 121 128 133 132 128 120 112 104 95 90 87 89 90 87 79 75 74 79 94 105 103 100 99 96 91 90 82 73 60 68 62 75
210 218 226 205 171 178 143 126 121 120 119 120 122 121 120 122 122 115 108 102 97 96 95 92 91 89 85 82 79 80 92 107 109 104 99 97 97 96 96 94 80 61 66 63
Height
1497 1497 1493 1490 1490 1488 1491 1492 1493 1490 1488 1489 1486 1484 1482 1486 1488 1489 1492 1495 1497 1500 1503 1505 1506 1508 1510 1513 1516 1519 1523 1527 1531 1535 1539 1542 1546 1550 1553 1556 1559 1561 1564 1566
1496 1492 1486 1487 1490 1493 1494 1496 1492 1489 1488 1488 1486 1483 1481 1484 1486 1489 1491 1493 1496 1499 1501 1503 1505 1507 1508 1510 1513 1517 1520 1524 1528 1532 1536 1540 1544 1548 1551 1554 1556 1559 1562 1565
1486 1483 1484 1489 1492 1495 1493 1493 1490 1491 1488 1485 1486 1483 1480 1482 1486 1488 1490 1492 1494 1496 1499 1502 1504 1505 1507 1509 1511 1515 1518 1522 1526 1530 1534 1538 1542 1545 1549 1551 1554 1557 1560 1563
1482 1481 1485 1487 1488 1490 1492 1487 1489 1491 1492 1485 1487 1490 1480 1478 1481 1484 1487 1489 1491 1495 1497 1500 1502 1504 1506 1508 1510 1513 1516 1520 1523 1527 1531 1535 1538 1541 1545 1549 1552 1555 1558 1561
1479 1479 1483 1485 1483 1486 1485 1485 1488 1488 1489 1489 1485 1489 1478 1476 1479 1479 1483 1487 1489 1493 1495 1498 1501 1503 1505 1507 1509 1512 1514 1517 1521 1524 1528 1532 1535 1539 1543 1547 1549 1552 1555 1558
1472 1477 1478 1477 1478 1482 1484 1488 1488 1487 1485 1497 1486 1490 1484 1472 1476 1477 1481 1485 1488 1491 1494 1497 1500 1502 1504 1506 1508 1510 1512 1515 1518 1521 1525 1528 1532 1535 1539 1543 1546 1549 1553 1556
1477 1475 1474 1475 1477 1480 1483 1489 1496 1498 1496 1492 1481 1487 1481 1472 1474 1477 1480 1484 1487 1490 1493 1496 1498 1500 1503 1505 1507 1509 1511 1513 1516 1519 1522 1525 1529 1532 1536 1539 1543 1547 1550 1553
1475 1475 1470 1471 1471 1475 1479 1480 1490 1497 1493 1483 1485 1485 1473 1473 1477 1479 1480 1483 1487 1489 1492 1495 1497 1499 1502 1504 1506 1507 1509 1511 1514 1516 1519 1523 1526 1530 1533 1536 1540 1543 1547 1551
1464 1466 1460 1464 1466 1468 1474 1475 1466 1475 1481 1485 1478 1476 1471 1472 1475 1478 1480 1483 1486 1489 1492 1494 1497 1499 1501 1503 1504 1506 1508 1510 1512 1514 1517 1520 1523 1527 1530 1533 1537 1541 1544 1548
1454 1464 1460 1462 1466 1467 1465 1465 1472 1478 1492 1494 1484 1480 1473 1471 1472 1475 1479 1482 1485 1489 1491 1494 1497 1499 1501 1502 1504 1505 1507 1509 1511 1513 1516 1518 1521 1524 1528 1531 1535 1538 1541 1545
1452 1461 1462 1462 1465 1466 1470 1470 1469 1471 1472 1485 1488 1478 1461 1467 1469 1473 1476 1480 1484 1488 1491 1494 1496 1498 1500 1502 1503 1505 1507 1509 1510 1512 1515 1517 1520 1523 1526 1529 1533 1536 1539 1542
1452 1455 1459 1458 1455 1454 1458 1461 1466 1477 1480 1476 1477 1474 1462 1466 1469 1473 1476 1480 1484 1488 1491 1494 1496 1498 1499 1501 1503 1504 1506 1508 1510 1512 1514 1516 1519 1522 1525 1528 1531 1534 1537 1540
1451 1457 1466 1467 1465 1462 1459 1457 1457 1460 1464 1471 1477 1473 1465 1467 1470 1474 1477 1480 1484 1487 1491 1493 1496 1497 1499 1501 1503 1504 1506 1507 1509 1511 1513 1516 1518 1521 1523 1526 1529 1532 1535 1537
1450 1451 1454 1458 1453 1451 1458 1458 1457 1458 1466 1468 1467 1464 1464 1466 1470 1474 1477 1481 1484 1487 1490 1493 1495 1497 1499 1501 1502 1504 1505 1507 1509 1511 1513 1515 1517 1519 1522 1525 1527 1530 1532 1534
1449 1449 1447 1443 1441 1443 1448 1452 1455 1457 1455 1459 1459 1459 1460 1465 1470 1474 1477 1480 1483 1487 1490 1492 1494 1496 1498 1500 1501 1503 1505 1506 1508 1509 1511 1514 1516 1518 1521 1523 1525 1527 1529 1531
1449 1448 1447 1449 1445 1446 1449 1449 1451 1453 1453 1453 1455 1459 1463 1469 1472 1475 1478 1480 1483 1486 1489 1492 1494 1495 1497 1499 1500 1502 1504 1505 1506 1508 1510 1512 1514 1516 1519 1521 1523 1525 1527 1529
1446 1449 1451 1449 1447 1450 1456 1448 1449 1451 1451 1452 1455 1458 1465 1469 1473 1476 1479 1481 1483 1486 1489 1491 1493 1494 1496 1497 1499 1500 1502 1503 1505 1506 1508 1510 1512 1514 1516 1518 1520 1522 1524 1526
1449 1449 1446 1445 1453 1466 1447 1444 1445 1449 1452 1452 1455 1460 1465 1470 1475 1478 1480 1482 1484 1486 1489 1490 1492 1493 1494 1496 1498 1499 1500 1501 1503 1504 1506 1507 1509 1511 1513 1515 1517 1519 1521 1523
1449 1449 1445 1446 1452 1450 1452 1449 1448 1451 1454 1455 1458 1463 1469 1473 1475 1480 1482 1484 1485 1487 1488 1489 1491 1492 1493 1494 1496 1497 1498 1499 1501 1502 1503 1505 1507 1509 1511 1512 1514 1516 1518 1520
1448 1448 1446 1447 1451 1455 1446 1447 1451 1452 1457 1457 1460 1465 1468 1471 1469 1478 1483 1484 1485 1487 1487 1488 1490 1491 1492 1493 1494 1495 1496 1497 1499 1500 1501 1503 1504 1506 1508 1510 1511 1513 1515 1517
1445 1448 1446 1447 1449 1443 1446 1450 1453 1460 1457 1459 1462 1466 1469 1470 1472 1480 1482 1484 1485 1486 1487 1488 1489 1490 1491 1492 1493 1494 1494 1496 1497 1498 1499 1501 1502 1504 1506 1508 1510 1512 1514 1516
1441 1442 1446 1445 1450 1450 1451 1452 1453 1456 1459 1461 1464 1467 1471 1474 1477 1480 1482 1484 1485 1486 1487 1488 1489 1489 1490 1491 1492 1492 1493 1494 1495 1496 1498 1499 1501 1503 1505 1507 1509 1511 1514 1515
1441 1442 1438 1443 1449 1453 1453 1455 1459 1461 1462 1464 1466 1469 1472 1476 1479 1481 1483 1484 1486 1486 1487 1488 1489 1489 1490 1491 1491 1491 1492 1493 1494 1496 1497 1498 1500 1502 1504 1506 1509 1511 1514 1516
1446 1449 1447 1449 1451 1455 1457 1459 1461 1462 1464 1466 1469 1471 1474 1476 1479 1481 1483 1485 1486 1487 1487 1488 1489 1490 1490 1490 1491 1491 1492 1493 1494 1496 1497 1499 1500 1502 1504 1507 1509 1512 1514 1516
1445 1447 1447 1450 1454 1457 1459 1461 1462 1464 1465 1467 1470 1472 1474 1477 1479 1481 1483 1484 1486 1487 1488 1489 1490 1490 1491 1491 1491 1492 1493 1494 1495 1496 1498 1500 1501 1502 1505 1507 1510 1513 1514 1516
1447 1447 1447 1446 1453 1454 1459 1462 1463 1465 1466 1468 1471 1473 1476 1478 1480 1482 1483 1485 1486 1488 1489 1490 1491 1491 1492 1492 1493 1493 1494 1495 1496 1498 1500 1502 1503 1505 1507 1509 1512 1515 1517 1519